Home   Weather   Ras al-Khaimah   Past weeks

Flag for United Arab Emirates Past Weather in Ras al-Khaimah, Ras al-Khaimah, United Arab Emirates — Yesterday and Last 2 Weeks

Now
95 °F

Sunny.


Feels Like: 113 °F
Forecast: 85 / 100 °F
Wind: 9 mph from North

Location: Ras Al Khaimah International Airport

Current Time: Sep 25, 2016 at 6:14:22 PM

Latest Report: Sep 25, 2016 at 5:00 PM


Visibility: 10 mi

Pressure: 29.59 "Hg

Humidity: 60%

Dew Point: 79 °F

Location of Ras al-KhaimahLocation

Past Weather in Ras al-Khaimah — Graph

°F

Ras al-Khaimah Temperature Yesterday

Maximum temperature yesterday: 102 °F (at 1:00 PM)
Minimum temperature yesterday: 81 °F (at 3:00 AM)
Average temperature yesterday: 90 °F

High & Low Weather Summary for the Past Weeks

 TemperatureHumidityPressure
High106 °F (Sep 12, 12:00 PM)94% (Sep 13, 3:00 AM)29.77 "Hg (Sep 13, 3:00 AM)
Low77 °F (Sep 19, 6:00 AM)18% (Sep 12, 1:00 PM)29.59 "Hg (Sep 12, 3:00 AM)
Average91 °F60%29.67 "Hg
* Reported Sep 10 5:00 PM — Sep 25 5:00 PM, Ras al-Khaimah, Weather by CustomWeather, © 2016

Note: Actual official high and low records may vary slightly from our data, if they occured in-between our weather recording intervals... More about our weather records

Advertising

Ras al-Khaimah Weather History for the Previous 24 Hours

Scroll right to see more
 ConditionsComfort  
Time TempWeatherWind HumidityBarometerVisibility
5:00 PM
Sun, Sep 25
95 °FSunny.9 mph60%29.59 "Hg10 mi
4:00 PM97 °FPassing clouds.10 mph56%29.59 "HgN/A
3:00 PM99 °FSunny.12 mph53%29.59 "Hg10 mi
2:00 PM100 °FSunny.3 mph47%29.59 "Hg10 mi
1:00 PM102 °FPassing clouds.6 mph35%29.62 "HgN/A
12:00 PM100 °FSunny.6 mph35%29.65 "Hg10 mi
11:00 AM99 °FPassing clouds.7 mph42%29.68 "HgN/A
10:00 AM95 °FSunny.8 mph50%29.68 "Hg10 mi
9:00 AM91 °FSunny.8 mph63%29.68 "Hg10 mi
8:00 AM88 °FClear.9 mph75%29.68 "Hg5 mi
7:00 AM86 °FClear.7 mph79%29.65 "Hg4 mi
6:00 AM84 °FClear.6 mph84%29.62 "Hg4 mi
5:00 AM86 °FClear.7 mph84%29.62 "Hg4 mi
4:00 AM84 °FClear.7 mph89%29.59 "Hg4 mi
3:00 AM86 °FClear.5 mph84%29.59 "Hg4 mi
2:00 AM86 °FClear.2 mph84%29.59 "Hg4 mi
1:00 AM86 °FClear.6 mph84%29.59 "Hg4 mi
12:00 AM86 °FClear.5 mph84%29.62 "Hg4 mi
11:00 PM
Sat, Sep 24
86 °FClear.5 mph84%29.62 "Hg4 mi
10:00 PM88 °FClear.2 mph79%29.62 "Hg4 mi
9:00 PM90 °FClear.2 mph75%29.62 "Hg4 mi
8:00 PM91 °FClear.6 mph71%29.59 "Hg4 mi
7:00 PM91 °FClear.6 mph71%29.59 "Hg4 mi
6:00 PM93 °FClear.7 mph67%29.59 "Hg4 mi
Weather by CustomWeather, © 2016

See weather overviewHow to use our weather pages